Location: Villacidro
(39.4500°N, 8.7330°E)
Time: 09:25:32
(UTC+02:00)

ISS - Visible Passes

Search period start: 08 May 2021 00:00
Search period end: 18 May 2021 00:00
Orbit: 418 x 421 km, 51.6° (Epoch: 08 May)

Date Brightness Start Highest point End Pass type
(mag) Time Alt. Az. Time Alt. Az. Time Alt. Az.
08 May -0.6 02:49:25 15° N 02:49:25 15° N 02:50:29 10° NNE visible
08 May -0.5 04:25:18 10° NNW 04:26:02 10° N 04:26:46 10° NNE visible
09 May -0.6 03:37:23 10° NNW 03:38:18 11° N 03:39:13 10° N visible
09 May -0.7 05:14:19 10° NNW 05:16:17 14° NNE 05:18:14 10° NE visible
10 May -0.5 02:50:23 12° NNW 02:50:34 12° N 02:51:58 10° NNE visible
10 May -0.6 04:27:08 10° NNW 04:28:35 12° N 04:30:02 10° NE visible
11 May -0.2 02:04:21 11° NNE 02:04:21 11° NNE 02:04:45 10° NNE visible
11 May -0.4 03:39:53 10° NNW 03:40:52 11° N 03:41:50 10° NNE visible
11 May -1.2 05:15:49 10° NNW 05:18:38 24° NNE 05:21:27 10° E visible
12 May -0.3 02:52:25 10° NNW 02:53:08 10° N 02:53:51 10° NNE visible
12 May -0.8 04:28:36 10° NNW 04:31:01 18° NNE 04:33:26 10° ENE visible
13 May -0.3 02:05:02 11° N 02:05:23 11° N 02:06:17 10° N visible
13 May -0.5 03:41:24 10° NNW 03:43:22 14° NNE 03:45:19 10° NE visible
13 May -2.9 05:17:26 10° NW 05:20:46 55° NE 05:24:05 10° ESE visible
14 May -0.2 01:18:38 11° N 01:18:38 11° N 01:19:00 10° NNE visible
14 May -0.4 02:54:12 10° NNW 02:55:39 12° N 02:57:07 10° NE visible
14 May -2.0 04:30:08 10° NW 04:33:15 34° NNE 04:36:23 10° E visible
14 May -2.2 21:13:42 10° S 21:15:58 17° SE 21:18:15 10° E visible
14 May -2.9 22:49:14 10° WSW 22:52:30 49° NW 22:55:40 11° NE visible
15 May -0.5 00:28:06 10° NW 00:29:57 14° NNW 00:31:48 10° NNE visible
15 May -0.2 02:06:57 10° N 02:07:56 11° N 02:08:55 10° NNE visible
15 May -1.3 03:42:52 10° NNW 03:45:42 24° NNE 03:48:31 10° E visible
15 May -3.5 05:19:23 10° WNW 05:22:39 47° SW 05:25:55 10° SSE visible
15 May -3.8 22:01:42 10° SW 22:05:02 85° NW 22:08:26 10° NE visible
15 May -0.8 23:39:57 10° WNW 23:42:16 17° NNW 23:44:36 10° NNE visible
16 May -0.1 01:19:29 10° NNW 01:20:11 10° N 01:20:53 10° NNE visible
16 May -0.8 02:55:39 10° NNW 02:58:05 18° NNE 03:00:31 10° ENE visible
16 May -3.9 04:31:53 10° NW 04:35:16 86° SW 04:38:38 10° SE visible
16 May -3.7 21:14:22 10° SW 21:17:39 53° SE 21:20:57 10° ENE visible
16 May -1.2 22:51:55 10° W 22:54:39 22° NNW 22:57:23 10° NNE visible
17 May -0.2 00:31:34 10° NNW 00:32:27 11° N 00:33:19 10° N visible
17 May -0.5 02:08:27 10° NNW 02:10:25 14° NNE 02:12:23 10° NE visible
17 May -3.1 03:45:05 14° NW 03:47:49 55° NE 03:51:08 10° ESE visible
17 May -2.1 05:22:13 10° W 05:24:18 15° SW 05:26:23 10° SSW visible
17 May -1.8 22:04:01 10° W 22:07:04 31° NNW 22:10:08 10° NE visible
17 May -0.3 23:43:22 10° NNW 23:44:42 12° N 23:46:03 10° NNE visible
